contact:dominique.lefevre@mio.osupytheas.fr, maurice.libes@osupytheas.fr, didier.mallarino@osupytheas.fr
Project:EMSO http://www.emso-fr.org/EMSO-France
Depth: 2436.0 m
Title:EMSO Ligure Ouest : Data MII capteur AQUADOPP
Date,Latitude,Longitude,X_East,Y_North,Z_Up,Amplitude_X,Amplitude_Y,Amplitude_Z,Batterie,SoundSpeed,Heading,Pitch,Roll,Pressure,TIS,Speed,Direction
, degrees North, degrees East, m.s-1, m.s-1,m.s-1, 1, 1, 1, Volt, m.s-1, degree, degree, degree, dbar, degree_C, m.s-1, degree
2019-06-25T00:09:04,42.805,6.029,-0.029,-0.005,-0.078,98.0,104.0,98.0,13.4,1505.2,324.3,-0.8,1.8,2470.251,13.29,0.029,260.2
2019-06-25T00:12:05,42.805,6.029,-0.025,0.003,-0.009,102.0,102.0,98.0,13.4,1505.2,324.4,-0.7,1.8,2470.249,13.3,0.025,276.8
2019-06-25T00:15:07,42.805,6.029,0.041,-0.017,0.002,100.0,104.0,98.0,13.4,1505.3,323.9,-0.7,1.9,2470.23,13.31,0.044,112.5
2019-06-25T00:18:07,42.805,6.029,0.04,-0.002,0.041,101.0,105.0,98.0,13.4,1505.3,326.4,-0.8,1.8,2470.21,13.32,0.04,92.9
2019-06-25T00:21:08,42.805,6.029,0.027,0.0,-0.004,101.0,104.0,97.0,13.4,1505.3,327.7,-0.7,1.8,2470.21,13.32,0.026,90.0
2019-06-25T00:24:09,42.805,6.029,0.039,-0.014,-0.013,100.0,103.0,97.0,13.4,1505.3,325.7,-0.8,1.8,2470.248,13.32,0.041,109.7
2019-06-25T00:27:10,42.805,6.029,-0.008,-0.014,-0.042,99.0,103.0,97.0,13.3,1505.3,324.9,-0.7,1.8,2470.208,13.32,0.016,209.7
2019-06-25T00:30:11,42.805,6.029,0.014,-0.001,-0.019,101.0,103.0,98.0,13.4,1505.3,326.9,-0.7,1.8,2470.206,13.32,0.014,94.1
2019-06-25T00:33:12,42.805,6.029,0.013,-0.012,-0.049,100.0,103.0,97.0,13.3,1505.3,326.3,-0.7,1.8,2470.227,13.32,0.017,132.7
2019-06-25T00:36:13,42.805,6.029,0.011,-0.004,-0.043,102.0,105.0,98.0,13.4,1505.3,328.6,-0.7,1.9,2470.232,13.33,0.011,110.0
2019-06-25T00:39:14,42.805,6.029,0.042,-0.003,0.015,101.0,105.0,99.0,13.3,1505.3,327.1,-0.8,1.9,2470.21,13.33,0.042,94.1
2019-06-25T00:42:15,42.805,6.029,0.023,0.003,0.023,101.0,105.0,98.0,13.4,1505.3,325.8,-0.7,1.8,2470.211,13.33,0.023,82.6
2019-06-25T00:45:16,42.805,6.029,0.024,-0.026,-0.021,101.0,106.0,98.0,13.3,1505.3,326.5,-0.7,1.9,2470.186,13.33,0.035,137.3
2019-06-25T00:48:17,42.805,6.029,-0.006,-0.017,-0.023,100.0,104.0,99.0,13.4,1505.3,324.0,-0.8,1.9,2470.219,13.33,0.018,199.4
2019-06-25T00:51:18,42.805,6.029,0.028,-0.017,-0.014,101.0,106.0,98.0,13.4,1505.3,322.9,-0.7,1.8,2470.19,13.33,0.032,121.3
2019-06-25T00:54:19,42.805,6.029,0.009,-0.003,-0.02,103.0,105.0,97.0,13.3,1505.3,326.4,-0.7,1.8,2470.213,13.33,0.009,108.4
2019-06-25T00:57:20,42.805,6.029,0.057,-0.001,0.034,103.0,103.0,97.0,13.3,1505.3,322.8,-0.7,1.8,2470.206,13.33,0.057,91.0
2019-06-25T01:00:21,42.805,6.029,0.039,-0.02,0.001,100.0,103.0,98.0,13.4,1505.3,326.0,-0.7,1.9,2470.17,13.33,0.043,117.1
2019-06-25T01:03:22,42.805,6.029,0.03,0.0,0.0,100.0,103.0,98.0,13.3,1505.3,326.7,-0.7,1.9,2470.206,13.33,0.03,90.0
2019-06-25T01:06:23,42.805,6.029,0.02,-0.006,-0.038,103.0,104.0,97.0,13.3,1505.3,326.2,-0.7,1.8,2470.21,13.33,0.02,106.7
2019-06-25T01:09:24,42.805,6.029,0.025,0.009,0.026,101.0,103.0,98.0,13.3,1505.3,325.2,-0.7,1.8,2470.225,13.33,0.026,70.2
2019-06-25T01:12:25,42.805,6.029,0.028,-0.026,-0.012,101.0,106.0,98.0,13.4,1505.3,326.7,-0.8,1.9,2470.171,13.33,0.038,132.9
2019-06-25T01:15:27,42.805,6.029,-0.006,-0.023,0.004,99.0,105.0,98.0,13.3,1505.3,326.5,-0.7,1.8,2470.224,13.33,0.023,194.6
2019-06-25T01:18:27,42.805,6.029,0.031,-0.022,0.011,103.0,104.0,97.0,13.4,1505.3,326.6,-0.7,1.8,2470.217,13.33,0.038,125.4
2019-06-25T01:21:28,42.805,6.029,0.04,-0.009,0.016,100.0,105.0,98.0,13.4,1505.3,324.3,-0.7,1.8,2470.193,13.33,0.041,102.7
2019-06-25T01:24:29,42.805,6.029,0.035,-0.002,0.0,99.0,105.0,98.0,13.4,1505.3,325.5,-0.7,1.9,2470.201,13.33,0.035,93.3
2019-06-25T01:27:30,42.805,6.029,0.042,-0.011,0.007,100.0,105.0,97.0,13.3,1505.3,326.5,-0.7,1.8,2470.208,13.33,0.043,104.7
2019-06-25T01:30:31,42.805,6.029,0.011,-0.016,-0.052,100.0,105.0,98.0,13.4,1505.3,324.8,-0.7,1.8,2470.171,13.33,0.019,145.5
2019-06-25T01:33:32,42.805,6.029,0.025,-0.022,-0.004,101.0,103.0,97.0,13.3,1505.3,326.4,-0.7,1.8,2470.189,13.33,0.033,131.3
2019-06-25T01:36:33,42.805,6.029,-0.001,-0.031,-0.039,101.0,104.0,97.0,13.3,1505.3,328.2,-0.8,1.8,2470.196,13.33,0.031,181.8
2019-06-25T01:39:34,42.805,6.029,0.034,-0.011,-0.026,100.0,104.0,98.0,13.3,1505.3,325.1,-0.7,1.8,2470.166,13.33,0.035,107.9
2019-06-25T01:42:35,42.805,6.029,0.005,0.002,-0.002,100.0,106.0,99.0,13.4,1505.3,323.9,-0.7,1.8,2470.213,13.33,0.005,68.2
2019-06-25T01:45:36,42.805,6.029,0.05,-0.01,0.004,100.0,104.0,97.0,13.3,1505.3,325.8,-0.8,1.9,2470.185,13.33,0.05,101.3
2019-06-25T01:48:37,42.805,6.029,0.015,-0.025,-0.011,99.0,105.0,97.0,13.4,1505.3,327.2,-0.7,1.9,2470.218,13.33,0.029,149.0
2019-06-25T01:51:38,42.805,6.029,-0.011,-0.008,-0.047,100.0,104.0,98.0,13.3,1505.3,323.7,-0.7,1.8,2470.175,13.33,0.013,234.0
2019-06-25T01:54:39,42.805,6.029,0.014,-0.038,-0.012,100.0,104.0,98.0,13.4,1505.3,325.8,-0.7,1.9,2470.122,13.33,0.04,159.8
2019-06-25T01:57:40,42.805,6.029,0.051,-0.015,0.018,101.0,105.0,97.0,13.4,1505.3,327.8,-0.7,1.9,2470.238,13.33,0.053,106.4
2019-06-25T02:00:41,42.805,6.029,0.064,-0.007,0.025,101.0,104.0,99.0,13.4,1505.3,325.0,-0.7,1.8,2470.169,13.33,0.064,96.2
2019-06-25T02:03:42,42.805,6.029,0.024,-0.021,0.009,101.0,103.0,98.0,13.4,1505.3,327.5,-0.7,1.8,2470.137,13.33,0.031,131.2
2019-06-25T02:06:43,42.805,6.029,0.007,-0.021,-0.02,102.0,104.0,97.0,13.3,1505.3,322.9,-0.7,1.8,2470.195,13.33,0.022,161.6
2019-06-25T02:09:44,42.805,6.029,0.026,-0.011,-0.009,100.0,104.0,98.0,13.4,1505.3,324.7,-0.7,1.8,2470.192,13.33,0.028,112.9
2019-06-25T02:12:45,42.805,6.029,0.025,0.003,0.017,102.0,104.0,98.0,13.4,1505.3,325.9,-0.7,1.9,2470.171,13.33,0.025,83.2
2019-06-25T02:15:46,42.805,6.029,0.002,-0.016,-0.007,102.0,104.0,97.0,13.4,1505.3,327.7,-0.7,1.9,2470.182,13.33,0.016,172.9
2019-06-25T02:18:47,42.805,6.029,0.015,-0.026,-0.012,102.0,105.0,98.0,13.4,1505.3,323.9,-0.7,1.8,2470.141,13.33,0.03,150.0
2019-06-25T02:21:49,42.805,6.029,-0.008,-0.007,-0.05,101.0,104.0,98.0,13.4,1505.3,326.4,-0.7,1.9,2470.156,13.33,0.01,228.8
2019-06-25T02:24:49,42.805,6.029,0.037,-0.029,-0.01,100.0,105.0,98.0,13.4,1505.3,327.6,-0.7,1.8,2470.159,13.33,0.047,128.1
2019-06-25T02:27:50,42.805,6.029,0.04,-0.009,-0.018,100.0,104.0,99.0,13.4,1505.3,325.1,-0.7,1.8,2470.169,13.33,0.041,102.7
2019-06-25T02:30:51,42.805,6.029,0.043,-0.013,-0.004,102.0,106.0,98.0,13.3,1505.3,326.2,-0.8,1.8,2470.162,13.33,0.044,106.8
2019-06-25T02:33:52,42.805,6.029,-0.002,-0.017,-0.014,102.0,105.0,97.0,13.4,1505.3,327.2,-0.7,1.8,2470.159,13.33,0.017,186.7
2019-06-25T02:36:53,42.805,6.029,0.015,0.002,0.009,101.0,104.0,98.0,13.4,1505.3,323.7,-0.7,1.8,2470.162,13.33,0.015,82.4
2019-06-25T02:39:54,42.805,6.029,-0.017,-0.021,-0.042,103.0,103.0,99.0,13.4,1505.3,326.2,-0.7,1.8,2470.168,13.33,0.027,219.0
2019-06-25T02:42:55,42.805,6.029,0.038,-0.007,-0.014,103.0,105.0,99.0,13.4,1505.3,327.5,-0.7,1.8,2470.137,13.33,0.038,100.4
2019-06-25T02:45:56,42.805,6.029,-0.003,-0.019,-0.023,104.0,104.0,99.0,13.4,1505.3,327.3,-0.8,1.9,2470.172,13.33,0.019,189.0
2019-06-25T02:48:57,42.805,6.029,-0.007,-0.042,-0.021,103.0,107.0,100.0,13.3,1505.3,327.0,-0.7,1.8,2470.155,13.32,0.042,189.5
2019-06-25T02:51:58,42.805,6.029,0.029,-0.003,-0.004,100.0,106.0,100.0,13.3,1505.3,325.5,-0.8,1.8,2470.172,13.32,0.029,95.9
2019-06-25T02:54:59,42.805,6.029,0.01,-0.016,-0.034,102.0,107.0,99.0,13.4,1505.3,323.6,-0.7,1.9,2470.216,13.32,0.018,148.0
2019-06-25T02:58:00,42.805,6.029,0.021,-0.03,-0.009,106.0,106.0,100.0,13.4,1505.3,323.9,-0.7,1.8,2470.161,13.32,0.036,145.0
2019-06-25T03:01:01,42.805,6.029,0.031,-0.035,-0.001,102.0,104.0,99.0,13.3,1505.3,324.1,-0.8,1.8,2470.169,13.32,0.046,138.5
2019-06-25T03:04:03,42.805,6.029,0.005,-0.007,-0.043,103.0,105.0,98.0,13.4,1505.3,327.8,-0.7,1.8,2470.143,13.32,0.008,144.5
2019-06-25T03:07:03,42.805,6.029,0.002,-0.023,-0.027,102.0,105.0,99.0,13.4,1505.3,323.3,-0.8,1.8,2470.117,13.32,0.023,175.0
2019-06-25T03:10:05,42.805,6.029,0.016,-0.004,-0.022,101.0,107.0,99.0,13.4,1505.3,325.6,-0.7,1.8,2470.151,13.32,0.016,104.0
2019-06-25T03:13:05,42.805,6.029,0.026,-0.007,-0.008,102.0,104.0,99.0,13.4,1505.3,327.2,-0.7,1.8,2470.157,13.32,0.026,105.1
2019-06-25T03:16:06,42.805,6.029,0.038,-0.015,-0.007,102.0,104.0,99.0,13.4,1505.3,326.6,-0.7,1.8,2470.156,13.32,0.04,111.5
2019-06-25T03:19:07,42.805,6.029,0.036,-0.019,0.004,103.0,104.0,99.0,13.4,1505.3,324.1,-0.8,1.8,2470.155,13.32,0.04,117.8
2019-06-25T03:22:09,42.805,6.029,0.04,-0.022,-0.013,104.0,105.0,100.0,13.3,1505.3,323.9,-0.7,1.9,2470.092,13.32,0.045,118.8
2019-06-25T03:25:10,42.805,6.029,0.016,-0.017,-0.017,102.0,106.0,99.0,13.4,1505.3,325.8,-0.7,1.8,2470.179,13.32,0.023,136.7
2019-06-25T03:28:10,42.805,6.029,-0.019,-0.042,-0.07,102.0,105.0,99.0,13.4,1505.3,325.4,-0.7,1.8,2470.14,13.32,0.046,204.3
2019-06-25T03:31:12,42.805,6.029,0.029,-0.009,-0.004,103.0,105.0,99.0,13.3,1505.3,323.1,-0.7,1.8,2470.163,13.32,0.03,107.2
2019-06-25T03:34:13,42.805,6.029,0.015,-0.026,-0.039,103.0,105.0,99.0,13.4,1505.3,326.4,-0.7,1.8,2470.147,13.32,0.03,150.0
2019-06-25T03:37:14,42.805,6.029,0.023,-0.007,0.022,103.0,104.0,99.0,13.4,1505.3,327.9,-0.7,1.8,2470.099,13.32,0.024,106.9
2019-06-25T03:40:15,42.805,6.029,0.041,-0.018,0.024,103.0,104.0,99.0,13.4,1505.3,325.0,-0.7,1.8,2470.123,13.32,0.044,113.7
2019-06-25T03:43:16,42.805,6.029,0.029,-0.021,0.009,102.0,104.0,99.0,13.4,1505.3,328.1,-0.7,1.8,2470.153,13.32,0.035,125.9
2019-06-25T03:46:17,42.805,6.029,0.037,-0.017,-0.011,104.0,104.0,100.0,13.4,1505.3,324.5,-0.7,1.9,2470.139,13.32,0.04,114.7
2019-06-25T03:49:18,42.805,6.029,0.04,-0.018,0.013,103.0,104.0,100.0,13.4,1505.3,324.5,-0.7,1.8,2470.147,13.32,0.043,114.2
2019-06-25T03:52:19,42.805,6.029,0.025,-0.018,0.007,103.0,106.0,98.0,13.3,1505.3,327.4,-0.8,1.8,2470.134,13.32,0.03,125.8
2019-06-25T03:55:20,42.805,6.029,0.031,-0.034,-0.028,103.0,104.0,99.0,13.4,1505.3,323.0,-0.7,1.8,2470.131,13.32,0.046,137.6
2019-06-25T03:58:21,42.805,6.029,0.053,-0.026,0.009,102.0,104.0,100.0,13.4,1505.3,325.7,-0.7,1.8,2470.106,13.32,0.059,116.1
2019-06-25T04:01:22,42.805,6.029,0.039,-0.023,0.011,102.0,104.0,100.0,13.3,1505.3,327.2,-0.7,1.8,2470.17,13.32,0.045,120.5
2019-06-25T04:04:23,42.805,6.029,0.017,-0.026,-0.013,103.0,104.0,98.0,13.4,1505.3,328.3,-0.7,1.8,2470.143,13.32,0.031,146.8
2019-06-25T04:07:24,42.805,6.029,0.022,-0.016,0.006,102.0,104.0,100.0,13.4,1505.3,324.4,-0.7,1.8,2470.111,13.32,0.027,126.0
2019-06-25T04:10:25,42.805,6.029,0.009,-0.013,-0.03,103.0,105.0,99.0,13.3,1505.3,326.6,-0.7,1.8,2470.14,13.32,0.015,145.3
2019-06-25T04:13:26,42.805,6.029,0.022,-0.021,-0.013,103.0,104.0,99.0,13.4,1505.3,326.7,-0.7,1.9,2470.127,13.32,0.03,133.7
2019-06-25T04:16:27,42.805,6.029,0.067,-0.02,0.034,103.0,104.0,99.0,13.4,1505.3,322.8,-0.7,1.8,2470.11,13.32,0.069,106.6
2019-06-25T04:19:28,42.805,6.029,0.014,-0.016,-0.003,102.0,105.0,98.0,13.4,1505.3,324.0,-0.7,1.8,2470.12,13.32,0.021,138.8
2019-06-25T04:22:29,42.805,6.029,0.01,-0.035,-0.022,103.0,103.0,100.0,13.4,1505.3,324.4,-0.7,1.9,2470.146,13.32,0.036,164.1
2019-06-25T04:25:30,42.805,6.029,0.016,-0.037,-0.018,102.0,105.0,99.0,13.4,1505.3,323.1,-0.7,1.8,2470.115,13.32,0.04,156.6
2019-06-25T04:28:31,42.805,6.029,0.014,-0.025,-0.017,104.0,104.0,99.0,13.3,1505.3,325.9,-0.7,1.9,2470.129,13.32,0.028,150.7
2019-06-25T04:31:32,42.805,6.029,0.002,-0.033,-0.057,102.0,106.0,100.0,13.3,1505.3,326.7,-0.8,1.8,2470.136,13.32,0.033,176.5
2019-06-25T04:34:33,42.805,6.029,0.026,-0.023,0.008,104.0,104.0,99.0,13.4,1505.3,326.6,-0.7,1.9,2470.113,13.32,0.034,131.5
2019-06-25T04:37:34,42.805,6.029,0.0,-0.03,-0.033,103.0,106.0,100.0,13.4,1505.3,324.4,-0.7,1.9,2470.138,13.32,0.03,180.0
2019-06-25T04:40:35,42.805,6.029,0.028,-0.028,0.003,104.0,105.0,101.0,13.4,1505.3,326.9,-0.7,1.8,2470.133,13.32,0.039,135.0
2019-06-25T04:43:36,42.805,6.029,-0.017,-0.034,-0.033,102.0,104.0,100.0,13.4,1505.3,327.8,-0.7,1.9,2470.083,13.32,0.038,206.6
2019-06-25T04:46:37,42.805,6.029,0.004,-0.013,-0.022,102.0,105.0,100.0,13.4,1505.3,323.1,-0.7,1.8,2470.122,13.33,0.013,162.9
2019-06-25T04:49:38,42.805,6.029,0.004,-0.017,-0.029,102.0,105.0,101.0,13.4,1505.3,324.2,-0.7,1.9,2470.121,13.33,0.017,166.8
2019-06-25T04:52:39,42.805,6.029,-0.004,-0.028,0.01,102.0,105.0,100.0,13.4,1505.3,327.4,-0.7,1.8,2470.096,13.33,0.028,188.1
2019-06-25T04:55:40,42.805,6.029,0.044,-0.062,-0.042,103.0,105.0,100.0,13.4,1505.3,323.7,-0.7,1.8,2470.13,13.33,0.076,144.6
2019-06-25T04:58:41,42.805,6.029,0.026,-0.016,-0.01,103.0,105.0,99.0,13.4,1505.3,324.7,-0.7,1.9,2470.116,13.33,0.03,121.6
2019-06-25T05:01:42,42.805,6.029,0.009,-0.014,-0.01,102.0,105.0,98.0,13.4,1505.3,327.8,-0.8,1.8,2470.134,13.33,0.016,147.3
2019-06-25T05:04:43,42.805,6.029,0.012,-0.024,0.011,103.0,105.0,97.0,13.4,1505.3,325.7,-0.8,1.8,2470.128,13.33,0.026,153.4
2019-06-25T05:07:44,42.805,6.029,-0.012,-0.018,-0.068,103.0,104.0,99.0,13.4,1505.3,324.0,-0.7,1.8,2470.135,13.33,0.021,213.7
2019-06-25T05:10:45,42.805,6.029,0.039,-0.026,-0.013,102.0,106.0,99.0,13.3,1505.3,325.2,-0.8,1.8,2470.13,13.33,0.046,123.7
2019-06-25T05:13:46,42.805,6.029,0.021,-0.006,-0.029,100.0,105.0,99.0,13.3,1505.3,326.5,-0.8,1.9,2470.118,13.33,0.021,105.9
2019-06-25T05:16:47,42.805,6.029,-0.004,-0.049,-0.034,103.0,104.0,98.0,13.3,1505.3,328.0,-0.7,1.8,2470.114,13.33,0.049,184.7
2019-06-25T05:19:48,42.805,6.029,0.007,-0.027,-0.013,102.0,104.0,98.0,13.4,1505.3,323.7,-0.8,1.8,2470.075,13.33,0.027,165.5
2019-06-25T05:22:49,42.805,6.029,0.026,-0.012,0.008,103.0,105.0,99.0,13.3,1505.3,324.8,-0.7,1.8,2470.111,13.33,0.028,114.8
2019-06-25T05:25:50,42.805,6.029,0.016,-0.031,-0.044,101.0,103.0,98.0,13.3,1505.3,323.8,-0.7,1.8,2470.101,13.33,0.034,152.7
2019-06-25T05:28:51,42.805,6.029,0.004,-0.023,-0.062,103.0,104.0,100.0,13.4,1505.3,323.5,-0.8,1.8,2470.086,13.33,0.023,170.1
2019-06-25T05:31:52,42.805,6.029,0.019,-0.021,0.023,102.0,105.0,99.0,13.4,1505.3,325.7,-0.7,1.9,2470.086,13.33,0.028,137.9
2019-06-25T05:34:53,42.805,6.029,0.017,-0.024,-0.028,102.0,104.0,98.0,13.4,1505.3,324.7,-0.7,1.8,2470.106,13.33,0.029,144.7
2019-06-25T05:37:54,42.805,6.029,0.028,-0.018,-0.036,103.0,105.0,99.0,13.3,1505.3,327.8,-0.7,1.8,2470.091,13.33,0.033,122.7
2019-06-25T05:40:55,42.805,6.029,-0.007,-0.022,-0.036,102.0,108.0,99.0,13.4,1505.3,324.7,-0.8,1.9,2470.102,13.33,0.023,197.6
2019-06-25T05:43:56,42.805,6.029,-0.032,-0.046,-0.073,104.0,104.0,98.0,13.4,1505.3,328.4,-0.7,1.8,2470.072,13.33,0.056,214.8
2019-06-25T05:46:57,42.805,6.029,0.019,-0.033,-0.014,101.0,106.0,98.0,13.4,1505.3,322.8,-0.7,1.8,2470.094,13.33,0.038,150.1
2019-06-25T05:49:58,42.805,6.029,0.014,-0.011,-0.021,101.0,105.0,97.0,13.4,1505.3,324.8,-0.7,1.8,2470.1,13.33,0.017,128.2
2019-06-25T05:52:59,42.805,6.029,-0.001,-0.021,-0.037,102.0,103.0,98.0,13.4,1505.3,326.4,-0.7,1.8,2470.107,13.33,0.021,182.7
2019-06-25T05:56:00,42.805,6.029,0.0,-0.027,-0.024,100.0,104.0,98.0,13.3,1505.3,327.3,-0.7,1.8,2470.106,13.33,0.026,180.0
2019-06-25T05:59:01,42.805,6.029,-0.017,-0.016,-0.03,103.0,103.0,98.0,13.3,1505.3,324.8,-0.7,1.9,2470.067,13.32,0.023,226.7
2019-06-25T06:02:02,42.805,6.029,0.004,-0.018,-0.01,100.0,103.0,98.0,13.4,1505.3,325.3,-0.7,1.8,2470.117,13.32,0.018,167.5
2019-06-25T06:05:03,42.805,6.029,0.032,-0.002,0.03,100.0,104.0,99.0,13.4,1505.3,326.2,-0.7,1.8,2470.095,13.33,0.032,93.6
2019-06-25T06:08:04,42.805,6.029,-0.015,-0.008,-0.051,102.0,106.0,97.0,13.4,1505.3,323.0,-0.8,1.9,2470.117,13.33,0.017,241.9
2019-06-25T06:11:05,42.805,6.029,-0.022,-0.009,-0.033,100.0,105.0,98.0,13.4,1505.3,324.6,-0.8,1.8,2470.086,13.33,0.023,247.8
2019-06-25T06:14:06,42.805,6.029,0.018,-0.02,-0.064,100.0,103.0,99.0,13.4,1505.3,326.8,-0.7,1.8,2470.075,13.33,0.026,138.0
2019-06-25T06:17:07,42.805,6.029,0.006,-0.034,-0.01,101.0,103.0,97.0,13.4,1505.3,326.1,-0.7,1.8,2470.063,13.33,0.034,170.0
2019-06-25T06:20:08,42.805,6.029,0.004,-0.028,-0.018,100.0,105.0,98.0,13.4,1505.3,327.8,-0.7,1.9,2470.062,13.33,0.028,171.9
2019-06-25T06:23:09,42.805,6.029,0.015,-0.032,-0.026,100.0,104.0,98.0,13.3,1505.3,326.0,-0.7,1.8,2470.09,13.32,0.035,154.9
2019-06-25T06:26:10,42.805,6.029,0.019,-0.035,-0.05,101.0,102.0,98.0,13.4,1505.3,325.7,-0.7,1.8,2470.061,13.33,0.039,151.5
2019-06-25T06:29:11,42.805,6.029,0.007,-0.033,-0.033,100.0,103.0,99.0,13.4,1505.3,324.8,-0.7,1.9,2470.065,13.33,0.033,168.0
2019-06-25T06:32:12,42.805,6.029,0.016,-0.023,-0.014,100.0,104.0,97.0,13.4,1505.3,325.0,-0.7,1.8,2470.103,13.33,0.028,145.2
2019-06-25T06:35:13,42.805,6.029,0.002,-0.017,-0.038,101.0,104.0,98.0,13.3,1505.3,322.7,-0.7,1.8,2470.101,13.33,0.017,173.3
2019-06-25T06:38:14,42.805,6.029,-0.007,-0.018,-0.015,102.0,105.0,99.0,13.3,1505.3,325.4,-0.8,1.8,2470.084,13.33,0.019,201.2
2019-06-25T06:41:15,42.805,6.029,0.035,-0.02,-0.006,101.0,105.0,99.0,13.3,1505.3,323.1,-0.7,1.8,2470.059,13.33,0.04,119.7
2019-06-25T06:44:16,42.805,6.029,0.021,-0.031,-0.01,102.0,105.0,100.0,13.3,1505.3,325.5,-0.7,1.8,2470.086,13.33,0.037,145.9
2019-06-25T06:47:17,42.805,6.029,0.011,-0.034,0.001,102.0,106.0,100.0,13.3,1505.3,327.2,-0.8,1.9,2470.084,13.33,0.035,162.1
2019-06-25T06:50:18,42.805,6.029,0.029,-0.014,0.01,102.0,107.0,100.0,13.3,1505.3,325.6,-0.7,1.9,2470.097,13.33,0.032,115.8
2019-06-25T06:53:19,42.805,6.029,0.015,-0.032,-0.002,102.0,105.0,99.0,13.4,1505.3,325.9,-0.7,1.8,2470.074,13.33,0.035,154.9
2019-06-25T06:56:20,42.805,6.029,0.003,-0.016,-0.01,102.0,106.0,99.0,13.3,1505.3,326.5,-0.8,1.8,2470.05,13.33,0.016,169.4
2019-06-25T06:59:21,42.805,6.029,-0.01,-0.016,-0.027,102.0,104.0,99.0,13.3,1505.3,325.7,-0.7,1.8,2470.066,13.33,0.018,212.0
2019-06-25T07:02:22,42.805,6.029,-0.027,-0.029,-0.073,103.0,107.0,99.0,13.3,1505.3,327.9,-0.7,1.8,2470.058,13.33,0.039,223.0
2019-06-25T07:05:23,42.805,6.029,-0.006,-0.025,-0.02,101.0,104.0,98.0,13.4,1505.3,327.7,-0.7,1.8,2470.095,13.33,0.025,193.5
2019-06-25T07:08:24,42.805,6.029,0.0,-0.016,-0.027,103.0,105.0,99.0,13.4,1505.3,325.0,-0.7,1.8,2470.036,13.33,0.016,180.0
2019-06-25T07:11:25,42.805,6.029,-0.001,-0.029,-0.046,103.0,106.0,99.0,13.3,1505.3,327.1,-0.7,1.8,2470.115,13.33,0.029,182.0
2019-06-25T07:14:26,42.805,6.029,-0.04,-0.008,-0.068,102.0,106.0,101.0,13.3,1505.3,327.1,-0.7,1.8,2470.099,13.33,0.04,258.7
2019-06-25T07:17:27,42.805,6.029,0.0,-0.006,-0.03,103.0,105.0,101.0,13.3,1505.3,325.7,-0.7,1.8,2470.087,13.33,0.006,180.0
2019-06-25T07:20:28,42.805,6.029,-0.006,-0.008,-0.021,103.0,106.0,98.0,13.3,1505.3,324.9,-0.7,1.8,2470.068,13.33,0.01,216.9
2019-06-25T07:23:29,42.805,6.029,-0.024,-0.01,-0.041,104.0,106.0,99.0,13.4,1505.3,326.3,-0.7,1.8,2470.074,13.33,0.026,247.4
2019-06-25T07:26:30,42.805,6.029,-0.017,-0.014,0.0,102.0,105.0,99.0,13.4,1505.3,325.8,-0.8,1.8,2470.055,13.33,0.022,230.5
2019-06-25T07:29:31,42.805,6.029,0.003,-0.017,-0.028,102.0,104.0,98.0,13.3,1505.3,324.7,-0.7,1.9,2470.045,13.33,0.017,170.0
2019-06-25T07:32:32,42.805,6.029,-0.006,-0.03,-0.026,102.0,104.0,98.0,13.4,1505.3,324.3,-0.7,1.9,2470.03,13.33,0.03,191.3
2019-06-25T07:35:33,42.805,6.029,-0.011,-0.039,-0.069,101.0,104.0,99.0,13.4,1505.3,325.3,-0.7,1.9,2470.109,13.33,0.04,195.7
2019-06-25T07:38:34,42.805,6.029,-0.019,-0.02,-0.036,100.0,104.0,98.0,13.4,1505.3,325.5,-0.7,1.8,2470.101,13.33,0.027,223.5
2019-06-25T07:41:35,42.805,6.029,0.003,-0.013,-0.029,102.0,105.0,98.0,13.3,1505.3,325.8,-0.7,1.8,2470.065,13.33,0.013,167.0
2019-06-25T07:44:36,42.805,6.029,0.021,-0.022,-0.008,102.0,103.0,98.0,13.4,1505.3,325.4,-0.7,1.8,2470.086,13.33,0.03,136.3
2019-06-25T07:47:37,42.805,6.029,-0.002,-0.021,-0.033,103.0,104.0,99.0,13.4,1505.3,326.4,-0.7,1.8,2470.105,13.33,0.021,185.4
2019-06-25T07:50:38,42.805,6.029,-0.004,-0.02,-0.035,104.0,105.0,98.0,13.4,1505.3,322.7,-0.7,1.8,2470.051,13.33,0.02,191.3
2019-06-25T07:53:39,42.805,6.029,-0.001,-0.024,-0.045,105.0,105.0,100.0,13.4,1505.3,325.7,-0.7,1.9,2470.057,13.33,0.024,182.4
2019-06-25T07:56:40,42.805,6.029,-0.001,-0.01,-0.045,102.0,106.0,100.0,13.4,1505.3,324.8,-0.7,1.8,2470.049,13.33,0.01,185.7
2019-06-25T07:59:41,42.805,6.029,0.026,-0.039,-0.021,103.0,105.0,99.0,13.3,1505.3,327.8,-0.7,1.8,2470.05,13.33,0.046,146.3
2019-06-25T08:02:42,42.805,6.029,0.019,-0.014,-0.022,103.0,105.0,100.0,13.3,1505.3,324.2,-0.7,1.9,2470.107,13.33,0.023,126.4
2019-06-25T08:05:43,42.805,6.029,-0.022,-0.021,-0.04,102.0,106.0,100.0,13.4,1505.3,326.2,-0.7,1.8,2470.053,13.33,0.03,226.3
2019-06-25T08:08:44,42.805,6.029,0.014,-0.048,-0.041,102.0,107.0,99.0,13.3,1505.3,323.8,-0.7,1.8,2470.089,13.33,0.05,163.7
2019-06-25T08:11:45,42.805,6.029,0.011,-0.021,-0.008,103.0,105.0,99.0,13.4,1505.3,325.8,-0.7,1.9,2470.06,13.33,0.023,152.4
2019-06-25T08:14:46,42.805,6.029,-0.008,-0.014,0.0,103.0,105.0,98.0,13.4,1505.3,325.1,-0.7,1.8,2470.043,13.33,0.016,209.7
2019-06-25T08:17:47,42.805,6.029,-0.037,-0.022,-0.039,103.0,105.0,100.0,13.4,1505.3,326.9,-0.7,1.8,2470.048,13.33,0.043,239.3
2019-06-25T08:20:48,42.805,6.029,0.004,-0.013,-0.017,104.0,105.0,99.0,13.4,1505.3,324.3,-0.7,1.9,2470.065,13.33,0.013,162.9
2019-06-25T08:23:49,42.805,6.029,-0.011,-0.024,-0.082,104.0,106.0,99.0,13.3,1505.3,324.6,-0.7,1.8,2470.068,13.33,0.026,204.6
2019-06-25T08:26:50,42.805,6.029,-0.001,-0.004,-0.009,103.0,107.0,99.0,13.4,1505.3,327.6,-0.7,1.8,2470.076,13.33,0.004,194.0
2019-06-25T08:29:51,42.805,6.029,-0.006,-0.022,-0.021,103.0,107.0,99.0,13.4,1505.3,323.0,-0.7,1.9,2470.063,13.33,0.022,195.3
2019-06-25T08:32:52,42.805,6.029,-0.015,-0.024,-0.039,103.0,106.0,100.0,13.4,1505.3,326.6,-0.7,1.8,2470.028,13.33,0.028,212.0
2019-06-25T08:35:53,42.805,6.029,0.013,-0.017,-0.032,103.0,106.0,100.0,13.4,1505.3,325.0,-0.7,1.8,2470.087,13.33,0.021,142.6
2019-06-25T08:38:54,42.805,6.029,-0.004,-0.019,-0.042,103.0,107.0,99.0,13.4,1505.3,327.5,-0.7,1.8,2470.059,13.33,0.019,191.9
2019-06-25T08:41:55,42.805,6.029,0.014,-0.026,-0.034,102.0,106.0,99.0,13.3,1505.3,322.8,-0.7,1.8,2470.042,13.33,0.029,151.7
2019-06-25T08:44:56,42.805,6.029,-0.01,-0.008,-0.04,103.0,105.0,98.0,13.4,1505.3,324.1,-0.7,1.9,2470.033,13.33,0.012,231.3
2019-06-25T08:47:57,42.805,6.029,-0.014,-0.017,-0.018,101.0,106.0,99.0,13.4,1505.3,325.6,-0.7,1.8,2470.089,13.33,0.022,219.5
2019-06-25T08:50:58,42.805,6.029,-0.007,-0.01,-0.063,103.0,105.0,98.0,13.4,1505.3,327.6,-0.7,1.8,2470.086,13.33,0.012,215.0
2019-06-25T08:53:59,42.805,6.029,-0.012,-0.021,-0.047,103.0,107.0,100.0,13.4,1505.3,325.1,-0.7,1.8,2470.072,13.33,0.024,209.7
2019-06-25T08:57:00,42.805,6.029,-0.011,-0.018,-0.026,105.0,106.0,99.0,13.4,1505.3,327.0,-0.7,1.9,2470.054,13.33,0.021,211.4
2019-06-25T09:00:01,42.805,6.029,-0.002,-0.011,-0.045,103.0,106.0,99.0,13.4,1505.3,325.0,-0.7,1.9,2470.082,13.33,0.011,190.3
2019-06-25T09:03:02,42.805,6.029,-0.021,-0.011,-0.035,102.0,106.0,100.0,13.4,1505.3,325.9,-0.7,1.8,2470.068,13.33,0.023,242.4
2019-06-25T09:06:03,42.805,6.029,-0.039,-0.01,-0.064,102.0,106.0,99.0,13.4,1505.3,324.2,-0.7,1.8,2470.057,13.33,0.04,255.6
2019-06-25T09:09:04,42.805,6.029,0.013,-0.023,-0.012,103.0,107.0,98.0,13.4,1505.3,323.7,-0.7,1.8,2470.036,13.33,0.026,150.5
2019-06-25T09:12:05,42.805,6.029,0.033,-0.008,0.033,102.0,106.0,99.0,13.4,1505.3,323.4,-0.7,1.8,2470.054,13.33,0.033,103.6
2019-06-25T09:15:06,42.805,6.029,-0.046,-0.023,-0.037,102.0,106.0,99.0,13.4,1505.3,325.9,-0.7,1.9,2470.042,13.33,0.051,243.4
2019-06-25T09:18:07,42.805,6.029,0.002,-0.008,-0.029,102.0,106.0,99.0,13.4,1505.3,326.3,-0.7,1.8,2470.072,13.33,0.008,166.0
2019-06-25T09:21:08,42.805,6.029,0.021,-0.014,-0.024,102.0,106.0,98.0,13.4,1505.3,325.4,-0.8,1.8,2470.047,13.33,0.025,123.7
2019-06-25T09:24:09,42.805,6.029,0.006,-0.013,-0.039,103.0,106.0,100.0,13.4,1505.3,327.1,-0.8,1.8,2470.054,13.33,0.014,155.2
2019-06-25T09:27:10,42.805,6.029,0.033,-0.021,-0.006,103.0,106.0,98.0,13.4,1505.3,327.0,-0.7,1.8,2470.112,13.33,0.039,122.5
2019-06-25T09:30:11,42.805,6.029,0.022,0.01,-0.03,102.0,105.0,99.0,13.4,1505.3,324.9,-0.8,1.8,2470.08,13.33,0.024,65.6
2019-06-25T09:33:12,42.805,6.029,0.041,-0.015,0.019,103.0,106.0,99.0,13.3,1505.3,326.3,-0.7,1.8,2470.083,13.33,0.043,110.1
2019-06-25T09:36:13,42.805,6.029,0.008,-0.027,0.019,104.0,108.0,99.0,13.3,1505.3,324.1,-0.7,1.8,2470.04,13.33,0.028,163.5
2019-06-25T09:39:14,42.805,6.029,0.034,-0.011,0.02,103.0,106.0,99.0,13.3,1505.3,326.6,-0.7,1.8,2470.025,13.33,0.035,107.9